Time,TemperatureF,DewpointF,PressureIn,WindDirection,WindDirectionDegrees,WindSpeedMPH,WindSpeedGustMPH,Humidity,HourlyPrecipIn,Conditions,Clouds,dailyrainin,SoftwareType,DateUTC
2013-07-20 00:09:00,59.0,47.7,29.92,East,90,0.0,-999.0,66,-99.99,,,0.00,Acu-Link.com,2013-07-20 07:09:00,
2013-07-20 00:24:00,59.0,49.2,29.91,SSE,157,0.0,-999.0,70,-99.99,,,0.00,Acu-Link.com,2013-07-20 07:24:00,
2013-07-20 00:40:00,57.2,48.3,29.91,SE,135,0.0,-999.0,72,-99.99,,,0.00,Acu-Link.com,2013-07-20 07:40:00,
2013-07-20 00:55:00,55.4,48.3,29.91,East,90,0.0,-999.0,77,-99.99,,,0.00,Acu-Link.com,2013-07-20 07:55:00,
2013-07-20 01:10:00,55.4,48.7,29.91,East,90,0.0,-999.0,78,-99.99,,,0.00,Acu-Link.com,2013-07-20 08:10:00,
2013-07-20 01:26:00,55.4,48.7,29.91,East,90,0.0,-999.0,78,-99.99,,,0.00,Acu-Link.com,2013-07-20 08:26:00,
2013-07-20 01:41:00,55.4,49.0,29.91,East,90,0.0,-999.0,79,-99.99,,,0.00,Acu-Link.com,2013-07-20 08:41:00,
2013-07-20 01:56:00,53.6,47.2,29.91,ESE,112,2.7,-999.0,79,-99.99,,,0.00,Acu-Link.com,2013-07-20 08:56:00,
2013-07-20 02:11:00,53.6,46.9,29.91,NE,45,0.0,-999.0,78,-99.99,,,0.00,Acu-Link.com,2013-07-20 09:11:00,
2013-07-20 02:26:00,53.6,46.6,29.92,SSE,157,0.0,-999.0,77,-99.99,,,0.00,Acu-Link.com,2013-07-20 09:26:00,
2013-07-20 02:42:00,53.6,47.2,29.92,East,90,0.0,-999.0,79,-99.99,,,0.00,Acu-Link.com,2013-07-20 09:42:00,
2013-07-20 02:57:00,51.8,46.2,29.92,ESE,112,0.0,-999.0,81,-99.99,,,0.00,Acu-Link.com,2013-07-20 09:57:00,
2013-07-20 03:12:00,51.8,47.1,29.92,ENE,67,0.0,-999.0,84,-99.99,,,0.00,Acu-Link.com,2013-07-20 10:12:00,
2013-07-20 03:27:00,51.8,47.1,29.92,ESE,112,0.0,-999.0,84,-99.99,,,0.00,Acu-Link.com,2013-07-20 10:27:00,
2013-07-20 03:42:00,51.8,47.4,29.92,ESE,112,0.0,-999.0,85,-99.99,,,0.00,Acu-Link.com,2013-07-20 10:42:00,
2013-07-20 03:57:00,51.8,48.1,29.92,ENE,67,0.0,-999.0,87,-99.99,,,0.00,Acu-Link.com,2013-07-20 10:57:00,
2013-07-20 04:12:00,51.8,47.7,29.92,East,90,0.0,-999.0,86,-99.99,,,0.00,Acu-Link.com,2013-07-20 11:12:00,
2013-07-20 04:28:00,51.8,47.7,29.92,East,90,0.0,-999.0,86,-99.99,,,0.00,Acu-Link.com,2013-07-20 11:28:00,
2013-07-20 04:43:00,50.0,46.3,29.92,East,90,0.0,-999.0,87,-99.99,,,0.00,Acu-Link.com,2013-07-20 11:43:00,
2013-07-20 04:58:00,50.0,46.6,29.92,East,90,0.0,-999.0,88,-99.99,,,0.00,Acu-Link.com,2013-07-20 11:58:00,
2013-07-20 05:14:00,50.0,46.9,29.92,East,90,0.0,-999.0,89,-99.99,,,0.00,Acu-Link.com,2013-07-20 12:14:00,
2013-07-20 05:29:00,50.0,47.5,29.92,East,90,0.0,-999.0,91,-99.99,,,0.00,Acu-Link.com,2013-07-20 12:29:00,
2013-07-20 05:44:00,50.0,47.5,29.92,SSE,157,0.0,-999.0,91,-99.99,,,0.00,Acu-Link.com,2013-07-20 12:44:00,
2013-07-20 05:59:00,50.0,48.3,29.92,ESE,112,0.0,-999.0,94,-99.99,,,0.00,Acu-Link.com,2013-07-20 12:59:00,
2013-07-20 06:14:00,50.0,48.3,29.92,South,180,0.0,-999.0,94,-99.99,,,0.00,Acu-Link.com,2013-07-20 13:14:00,
2013-07-20 06:29:00,50.0,49.5,29.92,ESE,112,0.0,-999.0,98,-99.99,,,0.00,Acu-Link.com,2013-07-20 13:29:00,
2013-07-20 06:45:00,50.0,49.5,29.92,East,90,0.0,-999.0,98,-99.99,,,0.00,Acu-Link.com,2013-07-20 13:45:00,
2013-07-20 07:00:00,50.0,47.5,29.92,SSW,202,0.0,-999.0,91,-99.99,,,0.00,Acu-Link.com,2013-07-20 14:00:00,
2013-07-20 07:15:00,51.8,48.4,29.92,SSW,202,0.0,-999.0,88,-99.99,,,0.00,Acu-Link.com,2013-07-20 14:15:00,
2013-07-20 07:30:00,51.8,48.4,29.92,South,180,0.0,-999.0,88,-99.99,,,0.00,Acu-Link.com,2013-07-20 14:30:00,
2013-07-20 07:45:00,53.6,49.5,29.92,South,180,0.0,-999.0,86,-99.99,,,0.00,Acu-Link.com,2013-07-20 14:45:00,
2013-07-20 08:01:00,55.4,51.3,29.92,SSW,202,1.1,-999.0,86,-99.99,,,0.00,Acu-Link.com,2013-07-20 15:01:00,
2013-07-20 08:16:00,57.2,51.8,29.92,SSW,202,0.0,-999.0,82,-99.99,,,0.00,Acu-Link.com,2013-07-20 15:16:00,
2013-07-20 08:31:00,59.0,51.1,29.92,SSW,202,1.1,-999.0,75,-99.99,,,0.00,Acu-Link.com,2013-07-20 15:31:00,
2013-07-20 08:47:00,60.8,50.2,29.91,NE,45,0.0,-999.0,68,-99.99,,,0.00,Acu-Link.com,2013-07-20 15:47:00,
2013-07-20 09:02:00,62.6,51.1,29.91,NW,315,0.0,-999.0,66,-99.99,,,0.00,Acu-Link.com,2013-07-20 16:02:00,
2013-07-20 09:17:00,64.4,50.2,29.91,ESE,112,1.1,-999.0,60,-99.99,,,0.00,Acu-Link.com,2013-07-20 16:17:00,
2013-07-20 09:32:00,66.2,50.0,29.90,SSW,202,2.7,-999.0,56,-99.99,,,0.00,Acu-Link.com,2013-07-20 16:32:00,
2013-07-20 09:47:00,69.8,50.8,29.90,NW,315,3.1,-999.0,51,-99.99,,,0.00,Acu-Link.com,2013-07-20 16:47:00,
2013-07-20 10:03:00,69.8,50.3,29.90,West,270,2.0,-999.0,50,-99.99,,,0.00,Acu-Link.com,2013-07-20 17:03:00,
2013-07-20 10:18:00,73.4,50.8,29.89,NE,45,0.0,-999.0,45,-99.99,,,0.00,Acu-Link.com,2013-07-20 17:18:00,
2013-07-20 10:33:00,73.4,50.1,29.89,NE,45,3.1,-999.0,44,-99.99,,,0.00,Acu-Link.com,2013-07-20 17:33:00,
2013-07-20 10:48:00,73.4,50.1,29.88,NNE,22,1.6,-999.0,44,-99.99,,,0.00,Acu-Link.com,2013-07-20 17:48:00,
2013-07-20 11:03:00,75.2,50.5,29.88,West,270,3.6,-999.0,42,-99.99,,,0.00,Acu-Link.com,2013-07-20 18:03:00,
2013-07-20 11:19:00,77.0,50.1,29.87,North,0,3.1,-999.0,39,-99.99,,,0.00,Acu-Link.com,2013-07-20 18:19:00,
2013-07-20 11:34:00,78.8,51.0,29.87,WSW,247,4.0,-999.0,38,-99.99,,,0.00,Acu-Link.com,2013-07-20 18:34:00,
2013-07-20 11:49:00,77.0,48.0,29.86,WNW,292,2.7,-999.0,36,-99.99,,,0.00,Acu-Link.com,2013-07-20 18:49:00,
2013-07-20 12:04:00,78.8,48.8,29.86,West,270,4.0,-999.0,35,-99.99,,,0.00,Acu-Link.com,2013-07-20 19:04:00,
2013-07-20 12:20:00,80.6,50.4,29.85,West,270,2.7,-999.0,35,-99.99,,,0.00,Acu-Link.com,2013-07-20 19:20:00,
2013-07-20 12:35:00,80.6,48.0,29.84,SE,135,1.6,-999.0,32,-99.99,,,0.00,Acu-Link.com,2013-07-20 19:35:00,
2013-07-20 12:50:00,80.6,47.1,29.84,East,90,1.1,-999.0,31,-99.99,,,0.00,Acu-Link.com,2013-07-20 19:50:00,
2013-07-20 13:05:00,82.4,45.0,29.84,North,0,2.0,-999.0,27,-99.99,,,0.00,Acu-Link.com,2013-07-20 20:05:00,
2013-07-20 13:36:00,84.2,47.5,29.83,SSE,157,2.7,-999.0,28,-99.99,,,0.00,Acu-Link.com,2013-07-20 20:36:00,
2013-07-20 13:51:00,86.0,45.0,29.83,SSW,202,3.6,-999.0,24,-99.99,,,0.00,Acu-Link.com,2013-07-20 20:51:00,
2013-07-20 14:06:00,84.2,45.6,29.82,West,270,2.0,-999.0,26,-99.99,,,0.00,Acu-Link.com,2013-07-20 21:06:00,
2013-07-20 14:21:00,84.2,43.5,29.82,NNE,22,4.7,-999.0,24,-99.99,,,0.00,Acu-Link.com,2013-07-20 21:21:00,
2013-07-20 14:36:00,86.0,47.1,29.81,West,270,2.0,-999.0,26,-99.99,,,0.00,Acu-Link.com,2013-07-20 21:36:00,
2013-07-20 14:51:00,86.0,45.0,29.81,WNW,292,3.1,-999.0,24,-99.99,,,0.00,Acu-Link.com,2013-07-20 21:51:00,
2013-07-20 15:06:00,86.0,45.0,29.81,SSE,157,2.0,-999.0,24,-99.99,,,0.00,Acu-Link.com,2013-07-20 22:06:00,
2013-07-20 15:22:00,86.0,46.1,29.80,NNE,22,1.1,-999.0,25,-99.99,,,0.00,Acu-Link.com,2013-07-20 22:22:00,
2013-07-20 15:37:00,86.0,46.1,29.80,NNW,337,4.0,-999.0,25,-99.99,,,0.00,Acu-Link.com,2013-07-20 22:37:00,
2013-07-20 15:52:00,86.0,43.9,29.79,East,90,4.0,-999.0,23,-99.99,,,0.00,Acu-Link.com,2013-07-20 22:52:00,
2013-07-20 16:07:00,86.0,43.9,29.78,NE,45,3.6,-999.0,23,-99.99,,,0.00,Acu-Link.com,2013-07-20 23:07:00,
2013-07-20 16:38:00,87.8,46.5,29.78,NNW,337,2.0,-999.0,24,-99.99,,,0.00,Acu-Link.com,2013-07-20 23:38:00,
2013-07-20 16:53:00,86.0,46.1,29.77,WNW,292,3.6,-999.0,25,-99.99,,,0.00,Acu-Link.com,2013-07-20 23:53:00,
2013-07-20 17:24:00,86.0,43.9,29.76,NNW,337,2.7,-999.0,23,-99.99,,,0.00,Acu-Link.com,2013-07-21 00:24:00,
2013-07-20 17:39:00,86.0,45.0,29.75,WNW,292,2.0,-999.0,24,-99.99,,,0.00,Acu-Link.com,2013-07-21 00:39:00,
2013-07-20 18:09:00,87.8,44.2,29.75,WNW,292,2.0,-999.0,22,-99.99,,,0.00,Acu-Link.com,2013-07-21 01:09:00,
2013-07-20 18:40:00,86.0,45.0,29.74,West,270,3.6,-999.0,24,-99.99,,,0.00,Acu-Link.com,2013-07-21 01:40:00,
2013-07-20 18:55:00,86.0,46.1,29.74,WSW,247,0.0,-999.0,25,-99.99,,,0.00,Acu-Link.com,2013-07-21 01:55:00,
2013-07-20 19:10:00,84.2,43.5,29.73,West,270,2.0,-999.0,24,-99.99,,,0.00,Acu-Link.com,2013-07-21 02:10:00,
2013-07-20 19:40:00,80.6,45.4,29.73,NE,45,0.0,-999.0,29,-99.99,,,0.00,Acu-Link.com,2013-07-21 02:40:00,
2013-07-20 20:11:00,78.8,47.2,29.73,ESE,112,0.0,-999.0,33,-99.99,,,0.00,Acu-Link.com,2013-07-21 03:11:00,
2013-07-20 20:26:00,77.0,46.5,29.74,East,90,0.0,-999.0,34,-99.99,,,0.00,Acu-Link.com,2013-07-21 03:26:00,
2013-07-20 21:12:00,71.6,46.6,29.74,NE,45,0.0,-999.0,41,-99.99,,,0.00,Acu-Link.com,2013-07-21 04:12:00,
2013-07-20 21:27:00,71.6,47.9,29.75,NNE,22,0.0,-999.0,43,-99.99,,,0.00,Acu-Link.com,2013-07-21 04:27:00,
2013-07-20 21:42:00,69.8,46.9,29.75,NE,45,0.0,-999.0,44,-99.99,,,0.00,Acu-Link.com,2013-07-21 04:42:00,
2013-07-20 21:58:00,69.8,47.5,29.75,ESE,112,0.0,-999.0,45,-99.99,,,0.00,Acu-Link.com,2013-07-21 04:58:00,
2013-07-20 22:13:00,68.0,46.4,29.76,ENE,67,1.1,-999.0,46,-99.99,,,0.00,Acu-Link.com,2013-07-21 05:13:00,
2013-07-20 22:28:00,68.0,47.6,29.77,NE,45,0.0,-999.0,48,-99.99,,,0.00,Acu-Link.com,2013-07-21 05:28:00,
2013-07-20 22:43:00,68.0,48.1,29.77,North,0,0.0,-999.0,49,-99.99,,,0.00,Acu-Link.com,2013-07-21 05:43:00,
2013-07-20 22:58:00,66.2,47.0,29.77,NNE,22,0.0,-999.0,50,-99.99,,,0.00,Acu-Link.com,2013-07-21 05:58:00,
2013-07-20 23:14:00,64.4,46.4,29.77,NNE,22,0.0,-999.0,52,-99.99,,,0.00,Acu-Link.com,2013-07-21 06:14:00,
2013-07-20 23:29:00,64.4,46.9,29.78,NNE,22,0.0,-999.0,53,-99.99,,,0.00,Acu-Link.com,2013-07-21 06:29:00,
2013-07-20 23:44:00,64.4,47.9,29.78,East,90,0.0,-999.0,55,-99.99,,,0.00,Acu-Link.com,2013-07-21 06:44:00,
2013-07-20 23:59:00,64.4,48.4,29.79,NE,45,0.0,-999.0,56,-99.99,,,0.00,Acu-Link.com,2013-07-21 06:59:00,